Regional Weather Roundup
Issued by NWS

Home | Current Version | Previous Version | Text Only | Print | Product List | Glossary On
Versions: 1 2 3 4 5 6 7 8 9 10 11 12 13 14 15 16 17 18 19 20 21 22 23 24 25 26
000
ASUS45 KREV 140710
RWRNV
NEVADA REGIONAL WEATHER ROUNDUP
NATIONAL WEATHER SERVICE RENO NV
1100 PM PST WED DEC 13 2017

NOTE: "FAIR" INDICATES FEW OR NO CLOUDS BELOW 12,000 FEET WITH NO
SIGNIFICANT WEATHER AND/OR OBSTRUCTIONS TO VISIBILITY.

NVZ001-003-004-140800-
WESTERN NEVADA

CITY           SKY/WX    TMP DP  RH WIND       PRES   REMARKS
RENO           PTCLDY    26  19  74 CALM      30.38R
CARSON CITY    FAIR      23  16  74 CALM      30.39R
MINDEN         FAIR      18  10  73 E6        30.40R
PYRAMID LAKE     N/A     34 N/A N/A SE3         N/A
FALLON         MOCLDY    18   9  68 SW3       30.39R
LOVELOCK       MOCLDY    20  14  77 S3        30.39R
HAWTHORNE      CLOUDY    23  14  68 SW3       30.38R
$$

NVZ002-CAZ072-073-140800-
NORTHERN AND CENTRAL SIERRA

CITY           SKY/WX    TMP DP  RH WIND       PRES   REMARKS
S. LAKE TAHOE  CLEAR     25  21  85 S3        30.34R
TRUCKEE        CLEAR     21  19  93 CALM      30.36R
SQUAW VLY 8000   N/A     37   7  28 NE8         N/A
SUSANVILLE     CLEAR    N/A N/A N/A CALM      30.39
BLUE CANYON    CLEAR     55  10  16 E15G32    30.20F
MAMMOTH LAKES  FAIR      37  -8  14 W12       30.34R
$$

NVZ030-031-036-140800-
NORTHERN NEVADA

CITY           SKY/WX    TMP DP  RH WIND       PRES   REMARKS
ELKO           PTCLDY    22  17  81 CALM      30.33R
WINNEMUCCA     MOCLDY    17  12  80 SE7       30.38S
WENDOVER       CLOUDY    21  15  78 CALM      30.35S
$$

NVZ035-037-140800-
CENTRAL NEVADA

CITY           SKY/WX    TMP DP  RH WIND       PRES   REMARKS
ELY            PTCLDY    32   6  33 W8        30.27R
EUREKA           N/A     13   7  77 W6        30.32R
$$

NVZ013-014-140800-
SOUTH CENTRAL NEVADA

CITY           SKY/WX    TMP DP  RH WIND       PRES   REMARKS
TONOPAH        PTCLDY    39  -9  12 N12       30.23R
$$

NVZ017-020-022-140800-
SOUTHERN NEVADA

CITY           SKY/WX    TMP DP  RH WIND       PRES   REMARKS
LAS VEGAS      PTCLDY    52   8  17 CALM      29.99S
N. LAS VEGAS   CLEAR     53   5  14 N6        30.00R
NELLIS AFB     CLEAR     51   8  17 NE7       29.99S
HENDERSON      CLEAR     50   1  13 VRB7      30.03R
MERCURY        CLEAR     57  -1   9 CALM      30.07S
$$




USA.gov is the U.S. government's official web portal to all federal, state and local government web resources and services.